Content
SEND FEEDBACK

Daily
Averages
Monthly
Summary
United States of America

MCBAIN, MICHIGAN


Home > North America > United States > Michigan
Elevation: 1237 feet     Latitude: 44 19N     Longitude: 085 11W

WEATHER
 
SELECT A DAY
Number of Records: 446,583;   Date Range: 1/1/95 - 7/7/14
 
SHARE

PRINT THIS DATA

[ ← Previous Day ]
WEATHER ALMANAC - JANUARY 31, 2013
[ Next Day → ]
[ °C ]   °F
Weather ElementAverageHighLow
Temperature17 °F21.2 °F (12:35 am)14 °F (9:17 pm)
Dewpoint10.8 °F17.1 °F (12:35 am)6.8 °F (1:35 pm)
Humidity76.3 %84 % (12:35 am)66 % (1:35 pm)
Barometer29.47 in29.75 in (9:17 pm)29.23 in (12:35 am)
Wind Speed14.9 mph20.7 mph (1:35 am)
Wind Gust28.8 mph (1:55 am)
Weather ElementAverage
Visibility4.4 mi
Wind DirectionWNW (281.4 °)

Weather ElementTotal
Precipitation---
Heating Degree Days47.4 (Base 65)
Averaged from 50 records on January 31, 2013
WEATHER CONDITIONS BREAKOUT
WIND DIRECTION BREAKOUT
WEATHER BY HOUR - JANUARY 31, 2013
[ °C ]   °F
Local TimeTemperatureDewpointHumidityBarometerVisibilityWind DirectionWind SpeedGust SpeedPrecipitationEventsConditions
12:35 AM21.2 °F17.1 °F84 %29.23 in2.0 miWest (280°)13.8 mph18.4 mphSnowLight Snow
12:55 AM21.2 °F17.1 °F84 %29.25 in2.0 miWest (270°)18.4 mph25.3 mphSnowLight Snow
1:14 AM20.7 °F16.0 °F82 %29.26 in2.0 miWest (280°)15.0 mph24.2 mphSnowLight Snow
1:35 AM19.2 °F14.7 °F83 %29.27 in2.0 miWest (280°)20.7 mph25.3 mphSnowLight Snow
1:55 AM18.9 °F14.0 °F81 %29.28 in3.0 miWest (280°)16.1 mph28.8 mphSnowLight Snow
2:15 AM18.9 °F13.8 °F81 %29.29 in3.0 miWest (280°)19.6 mph26.5 mphSnowLight Snow
2:35 AM18.9 °F13.6 °F80 %29.30 in4.0 miWest (280°)12.7 mph27.6 mphSnowLight Snow
2:55 AM18.9 °F13.6 °F80 %29.30 in4.0 miWNW (290°)19.6 mph27.6 mphSnowLight Snow
3:15 AM18.9 °F13.6 °F80 %29.32 in3.0 miWest (280°)15.0 mph24.2 mphSnowLight Snow
3:35 AM18.9 °F14.0 °F81 %29.32 in2.5 miWest (280°)16.1 mph25.3 mphSnowLight Snow
3:54 AM18.3 °F13.5 °F81 %29.33 in2.5 miWest (280°)20.7 mph25.3 mphSnowLight Snow
4:15 AM17.6 °F12.6 °F81 %29.34 in3.0 miWest (280°)17.3 mph21.9 mphSnowLight Snow
4:35 AM16.7 °F11.3 °F79 %29.35 in3.0 miWest (280°)17.3 mph26.5 mphSnowLight Snow
4:54 AM16.7 °F11.3 °F79 %29.36 in3.0 miWest (280°)15.0 mph28.8 mphSnowLight Snow
5:15 AM16.5 °F11.1 °F79 %29.37 in4.0 miWest (280°)17.3 mph24.2 mphSnowLight Snow
5:35 AM16.5 °F10.8 °F78 %29.38 in7.0 miWest (280°)16.1 mph24.2 mphSnowLight Snow
5:54 AM16.5 °F10.8 °F78 %29.39 in7.0 miWNW (290°)18.4 mph23.0 mphSnowLight Snow
6:15 AM16.5 °F10.6 °F77 %29.39 in5.0 miWNW (290°)18.4 mph26.5 mphSnowLight Snow
6:35 AM16.3 °F10.8 °F79 %29.40 in5.0 miWNW (290°)20.7 mph26.5 mphSnowLight Snow
6:54 AM16.3 °F10.2 °F77 %29.41 in7.0 miWNW (290°)18.4 mph28.8 mphSnowLight Snow
7:15 AM16.3 °F10.2 °F77 %29.42 in7.0 miWNW (290°)15.0 mph26.5 mphSnowLight Snow
7:35 AM16.3 °F10.4 °F77 %29.44 in4.0 miWest (280°)13.8 mph23.0 mphSnowLight Snow
7:54 AM16.3 °F10.4 °F77 %29.45 in3.0 miWNW (290°)17.3 mph23.0 mphSnowLight Snow
8:15 AM16.3 °F10.4 °F77 %29.45 in3.0 miWNW (290°)11.5 mphSnowLight Snow
8:35 AM16.3 °F11.1 °F80 %29.47 in1.2 miWest (280°)8.1 mphSnowLight Snow
8:54 AM16.3 °F10.8 °F79 %29.47 in2.5 miWest (280°)12.7 mph20.7 mphSnowLight Snow
9:15 AM16.3 °F11.1 °F80 %29.49 in2.0 miWest (280°)10.4 mph18.4 mphSnowLight Snow
9:35 AM16.3 °F10.4 °F77 %29.50 in7.0 miWNW (290°)17.3 mph21.9 mphSnowLight Snow
9:55 AM16.3 °F10.2 °F77 %29.51 in3.0 miWest (280°)11.5 mph18.4 mphSnowLight Snow
10:35 AM16.3 °F9.9 °F76 %29.54 in4.0 miWest (270°)10.4 mph19.6 mphSnowLight Snow
10:55 AM16.3 °F10.0 °F76 %29.54 in1.8 miWest (270°)15.0 mph21.9 mphSnowLight Snow
11:15 AM16.3 °F9.1 °F73 %29.56 in2.5 miWNW (290°)17.3 mph25.3 mphSnowLight Snow
11:35 AM16.3 °F8.6 °F72 %29.57 in5.0 miWNW (300°)13.8 mph25.3 mphSnowLight Snow
12:00 PM17.4 °F8.8 °F69 %29.57 in7.0 miWest (280°)19.6 mph24.2 mphSnowLight Snow
12:15 PM16.3 °F7.3 °F68 %29.57 in7.0 miWest (280°)15.0 mph24.2 mphSnowLight Snow
12:35 PM16.3 °F7.7 °F69 %29.57 in4.0 miWNW (290°)12.7 mph21.9 mphSnowLight Snow
12:55 PM16.3 °F9.5 °F74 %29.57 in1.8 miWest (280°)15.0 mph21.9 mphSnowLight Snow
1:15 PM16.3 °F7.9 °F69 %29.58 in7.0 miWest (280°)16.1 mph20.7 mphSnowLight Snow
1:35 PM16.3 °F6.8 °F66 %29.58 in10.0 miWest (280°)15.0 mph20.7 mphMostly Cloudy
1:55 PM16.3 °F7.2 °F67 %29.59 in10.0 miWest (280°)16.1 mph21.9 mphOvercast
2:15 PM16.3 °F7.2 °F67 %29.60 in5.0 miWNW (290°)13.8 mphSnowLight Snow
2:35 PM16.3 °F8.2 °F70 %29.60 in7.0 miWest (270°)17.3 mph21.9 mphSnowLight Snow
2:55 PM16.3 °F8.4 °F71 %29.61 in7.0 miWest (270°)11.5 mph18.4 mphSnowLight Snow
3:15 PM16.3 °F8.8 °F72 %29.62 in7.0 miWest (260°)9.2 mphSnowLight Snow
3:35 PM16.3 °F10.0 °F76 %29.63 in2.5 miWest (270°)11.5 mph17.3 mphSnowLight Snow
3:55 PM16.3 °F10.2 °F77 %29.64 in0.5 miWNW (290°)11.5 mphSnowLight Snow
4:15 PM16.3 °F9.7 °F75 %29.65 in2.0 miWest (280°)13.8 mph19.6 mphSnowLight Snow
4:35 PM16.3 °F8.6 °F72 %29.66 in10.0 miWest (270°)11.5 mphOvercast
4:54 PM16.3 °F9.5 °F74 %29.66 in10.0 miWest (280°)10.4 mph16.1 mphSnowLight Snow
9:17 PM14.0 °F8.6 °F79 %29.75 in1.0 miWNW (290°)5.8 mphSnowSnow
Hourly data recorded from KCAD, located miles away from McBain, Michigan







STORIES FROM OUR PARTNERS